User: anonymous   Login
Location: Montr�al
(45.5000°N, 73.5830°W)
Time: 13:31:49
(UTC-04:00)
Language:

Cosmos 2369 - Orbit

View from above orbital plane
View from above orbital plane
View from above satellite
View from above satellite

Ground track
Ground track

The orbit data is extracted from the following two-line orbital elements,

1 26069U 00006A   17293.84782303  .00000256  00000-0  16162-3 0  9998
2 26069  70.9919  95.8192 0010220  34.4019 325.7763 14.13355513913872
Epoch (UTC): 20 October 2017 20:20:51
Eccentricity: 0.0010220
inclination: 70.9919°
perigee height: 840 km
apogee height: 855 km
right ascension of ascending node: 95.8192°
argument of perigee: 34.4019°
revolutions per day: 14.13355513
mean anomaly at epoch: 325.7763°
orbit number at epoch: 91387

The dashed part of the orbit path shows where the satellite is in the earth's shadow,  

DLR